[Show "Revision History"] [Show "General Page Infos"] [Show "Page hits and edits"]

Revision History

Showing page edit history entries from 1 to 95 out of 95 entries total.

# Date Size Editor Comment Action
95 2021-09-05 15:26:32 9132 to previous ThiagoPezzo fix pt_BR label in header view
94 2020-12-11 21:38:01 9123 to previous AndMizyk added link to ukrainian translation view
93 2020-11-19 12:12:06 9086 to previous AggamRahamim   view
92 2020-11-19 11:22:57 9085 to previous AggamRahamim   view
91 2020-06-11 16:42:41 9062 to previous ChristopherCormier Replace deprecated DebPkg links with DebianPkg links view
90 2020-05-21 08:42:49 9056 to previous ChristopherCormier Update to mention the GTK 3 port, more prominent mention of xfce4-goodies, simplify outdated and confusing instructions on launching from the console, add new section on resetting to defaults view
89 2020-05-20 21:28:18 7866 to previous ?s0m3f00l added link to fix backlight and suspend issues found in current install of xfce4-power-manager view
88 2020-04-06 17:04:39 7551 to previous nodiscc fix syntax view
87 2020-04-06 17:04:20 7547 to previous nodiscc add link to xfce docs, highlight view
86 2019-10-05 02:16:06 7489 to previous PaulWise use line endings for easier editing view
85 2019-10-05 02:12:30 7468 to previous PaulWise wiki domain not needed in links to itself view
84 2019-10-05 02:11:01 7492 to previous PaulWise describe startx view
83 2019-10-05 02:07:53 7469 to previous PaulWise typo view
82 2019-10-05 02:04:46 7471 to previous PaulWise remove versions as they will just get out of date, TLS, fix IRC link view
81 2019-10-04 19:21:43 7839 to previous nodiscc move intro above TOC view
80 2019-10-04 19:21:12 7835 to previous nodiscc fix link syntax view
79 2019-10-04 19:20:58 7836 to previous nodiscc fix link syntax view
78 2019-10-04 19:20:18 7857 to previous nodiscc formatting, typo view
77 2019-10-04 19:19:21 7865 to previous nodiscc list panel plugins, condense list of less-used ones view
76 2019-10-04 19:12:46 6078 to previous nodiscc add list of xfce packages view
75 2019-10-04 18:55:22 4531 to previous nodiscc intro: reword, add WP link on top, fix TOC, rm vague instructions about install all packages view
74 2019-10-04 18:47:20 4682 to previous nodiscc generic install instructions, rm Debian 8 specific issue, add ToDo, formatting, shorten console section view
73 2019-10-04 18:36:20 5966 to previous nodiscc rm GNOME instructions, irrelevant here view
72 2019-10-04 18:35:28 6300 to previous nodiscc wording, rm dead link, link DisplayManager view
71 2019-10-04 18:32:03 6642 to previous nodiscc fix typo, reorder, remove duplicates view
70 2019-10-01 19:30:55 6731 to previous nodiscc add bug tracker links view
69 2019-10-01 19:27:50 6644 to previous nodiscc syntax fix view
68 2019-10-01 19:27:31 6642 to previous nodiscc add troubleshooting/tearing view
67 2019-10-01 19:24:37 6421 to previous nodiscc add WP/arch wiki links view
66 2019-10-01 19:22:41 6315 to previous nodiscc formatting, rm option removed from debian-installer, reorder, add debian-live-paragraph view
65 2019-10-01 19:14:12 6436 to previous nodiscc fix hr, link formatting view
64 2019-10-01 19:13:02 6417 to previous nodiscc add screenshot from s.d.o view
63 2019-10-01 19:11:16 6310 to previous nodiscc spacing view
62 2019-09-05 14:59:06 6256 to previous nodiscc add CategorySoftware view
61 2019-08-24 07:39:41 6235 to previous HenriLeFoll reorder versions view
60 2019-08-16 20:40:19 6235 to previous ?MatteoRedaelli   view
59 2019-07-26 14:39:05 6179 to previous slackjeff   view
58 2019-06-21 20:04:48 6151 to previous ?te36   view
57 2019-06-21 20:02:40 6060 to previous ?te36   view
56 2019-06-21 19:32:23 5708 to previous ?te36   view
55 2019-06-20 04:27:24 5581 to previous ?te36   view
54 2019-02-13 00:31:27 5278 to previous nodiscc Fix xfce team page link view
53 2019-02-13 00:29:22 5272 to previous nodiscc update link to debian xfce team page view
52 2017-08-02 10:10:31 5289 to previous ahmed abdelrahman   view
51 2017-08-02 10:01:47 5288 to previous ahmed abdelrahman   view
50 2017-05-13 15:42:08 5288 to previous BeatriceTorracca typo view
49 2017-05-13 15:41:33 5287 to previous BeatriceTorracca interwiki link view
48 2016-08-17 02:46:35 5315 to previous ?JoeAponte   view
47 2016-02-12 17:44:37 4628 to previous fayad   view
46 2015-12-14 08:07:24 4507 to previous JPierreGiraud s /http /https view
45 2015-10-16 21:30:27 4506 to previous vauss licensing information about the Xfce logo view
44 2015-10-16 15:51:14 4493 to previous vauss line removed view
43 2015-10-16 15:07:52 4499 to previous vauss added: Xfce logo view
42 2015-07-17 05:27:42 4407 to previous ?tomBombadil   view
41 2015-07-17 05:26:37 4409 to previous ?tomBombadil   view
40 2015-05-13 17:55:46 4337 to previous GregWooledge jessie is no longer testing view
39 2013-11-25 18:00:45 4357 to previous SteveMcIntyre s/aptitude/apt-get/ again view
38 2013-11-13 21:20:25 4360 to previous LluisRubies   view
37 2013-11-13 16:02:10 4358 to previous LluisRubies   view
36 2013-10-30 11:25:51 4357 to previous ?BertrandMarc Fix login from console, according to /usr/share/doc/xfce4-session/README.Debian view
35 2013-08-30 19:00:34 3431 to previous ?DaxMickelson   view
34 2013-06-13 01:57:58 3327 to previous ?RichardWurth   view
33 2013-06-13 01:56:38 3325 to previous ?RichardWurth Update XFCE versions in Debian releases view
32 2013-04-29 10:29:38 3370 to previous GeoffSimmons Amend name of installer boot option. view
31 2013-04-23 12:09:54 3361 to previous ChristianGatzemeier DebianDesktopHowTo view
30 2013-03-14 13:33:24 3261 to previous ChristianGatzemeier added uninstall commands, rm install xorg (dependency should get installed automatically) view
29 2013-01-11 00:46:25 3078 to previous ?RichardWurth Changed "apt-get search" to "apt-cache search" view
28 2012-11-16 21:01:39 3076 to previous AndreasRönnquist Mention 4.10 in Debian Experimental view
27 2012-11-16 20:53:16 3009 to previous AndreasRönnquist Make link of GTK+ - kind of strange linking Gnome, but not Gtk from a Xfce page, right? view
26 2012-11-10 20:52:18 3001 to previous AndreasRönnquist Add link to Swedish translation view
25 2012-11-06 09:01:20 2979 to previous ChristianGatzemeier DebianDesktopHowTo link view
24 2012-10-23 21:26:33 3006 to previous Calinou   view
23 2012-10-18 18:05:36 2914 to previous Calinou   view
22 2012-08-17 09:18:45 2874 to previous GeoffSimmons Use translation header from DefaultTemplate, amend install guide links. view
21 2012-07-16 03:55:06 3024 to previous BnW.h added Simplified Chinese page link view
20 2012-05-10 04:14:54 2994 to previous jimdeb +ko view
19 2012-03-10 07:23:19 2970 to previous ?MarkusBrummer Removed DebianLenny view
18 2011-11-20 16:23:42 3009 to previous ?MarkusBrummer Added versions in releases view
17 2011-08-06 16:45:34 2825 to previous PavloRudyj   view
16 2011-08-06 09:21:51 2705 to previous GeoffSimmons Fix Gnome link and deprecated InterWiki. view
15 2011-08-06 08:11:58 2693 to previous ПавлоРудий   view
14 2011-08-06 08:11:23 2691 to previous ПавлоРудий   view
13 2011-02-12 17:45:14 2467 to previous ?AntonioGómez   view
12 2010-11-23 23:40:32 2444 to previous GeoffSimmons Drop Etch references. view
11 2010-11-23 19:34:54 2717 to previous HenriLeFoll add TableOfContent view
10 2010-05-06 11:50:07 2665 to previous ?hpvmgulo   view
9 2010-02-15 18:48:41 2645 to previous BeatriceTorracca +link it & minor layout fix (wrong indent) view
8 2009-03-16 03:30:25 2623 to previous anonymous converted to 1.6 markup view
7 2009-03-12 06:59:21 2604 to previous GeoffSimmons s/xfde/xfce/ , add IRC channel, miscellaneous, drop broken link. view
6 2009-02-22 10:00:38 2542 to previous FranklinPiat fix translation header view
5 2009-02-22 09:49:37 2301 to previous FranklinPiat Merge DebianXFCE here view
4 2007-12-21 08:16:08 1458 to previous FranklinPiat duplicates DebianXFCE view
3 2006-05-29 06:40:18 1341 to previous PeMac   view
2 2006-05-29 06:38:52 1321 to previous PeMac   view
1 2006-05-29 06:38:28 1324 PeMac   view